Location: Cosy Dell
(34.2789°N, 117.4537°W)
Time: 11:38:58
(UTC+00:00)

Cosmos 1242 Rocket - Pass Details

Date: 14 July 2020
Orbit: 448 x 487 km, 81.2° (Epoch: 08 August)

Event Time Altitude Azimuth Distance (km) Brightness Sun altitude
Rises 11:09:28 0° 348° (NNW) 2,460 6.6 -17.6°
Reaches altitude 10° 11:11:32 10° 345° (NNW) 1,587 5.5 -17.3°
Maximum altitude 11:14:57 62° 264° (W) 513 2.4 -16.8°
Enters shadow 11:16:09 36° 198° (SSW) 734 3.0 -16.6°
